Dewpoint
13 12 11 11 13 14 12 11 10 10 9 9 8 7 4 -0 -3 -4 -3 -1 4 4 8 10 8 8 10 6 7 8 9 9 8
13 13 12 11 11 12 13 11 9 9 10 9 9 8 6 2 -3 -0 1 9 8 9 10 10 10 10 10 10 10 9 10 6 6
12 13 13 12 12 12 12 12 10 8 7 7 6 8 7 4 -2 0 4 10 10 10 8 9 10 10 10 10 9 10 9 9 7
7 12 13 12 12 12 13 13 11 9 7 4 4 6 7 6 0 0 8 10 10 10 9 9 10 9 9 9 9 10 8 8 1
1 8 12 13 12 12 12 13 13 11 9 7 3 4 5 6 1 2 7 10 10 10 10 10 9 9 10 9 9 7 6 1 -0
-8 -0 8 12 13 13 13 13 13 13 11 9 7 3 4 6 3 1 8 10 10 10 10 9 9 9 6 8 5 6 2 -1 -2
-13 -5 -0 9 11 13 13 13 13 13 13 12 10 7 2 5 4 1 3 9 10 9 9 9 9 9 4 5 5 -2 -5 -8 -7
-21 -9 5 6 9 11 13 13 13 13 13 13 12 10 6 3 4 2 4 9 10 10 9 8 9 8 6 2 -3 -9 -10 -9 -8
-27 -18 -7 4 8 9 10 12 13 13 13 13 12 12 8 5 4 3 4 7 10 9 9 9 9 6 4 -3 -7 -12 -11 -10 -8
-26 -25 -14 1 5 7 8 9 11 12 13 13 13 12 10 7 3 3 3 6 7 8 9 7 8 6 4 -6 -11 -12 -11 -10 -8
-25 -25 -23 -13 4 5 6 8 9 11 12 13 12 13 11 8 5 3 2 6 7 9 9 9 8 8 8 -1 -10 -11 -10 -9 -8
-24 -24 -24 -23 -13 3 5 6 7 8 10 12 12 12 12 9 6 4 3 5 7 8 8 8 9 9 7 1 -4 -9 -10 -9 -8
-23 -23 -23 -23 -23 -20 -1 3 6 6 7 9 11 12 11 8 7 7 5 5 5 7 8 8 9 8 8 8 5 -3 -5 -9 -8
-23 -23 -23 -22 -23 -24 -24 -10 0 3 6 6 9 10 10 9 7 8 7 7 6 6 7 7 8 9 8 8 8 7 -0 -7 -8
-23 -22 -22 -22 -23 -23 -23 -18 -5 -0 3 6 6 8 10 9 8 8 9 8 8 7 7 7 7 8 8 8 8 8 8 -3 -8
-24 -22 -21 -21 -21 -20 -21 -20 -3 3 4 5 5 7 9 9 8 9 9 9 9 9 9 8 7 7 8 8 8 8 8 8 1
-27 -24 -22 -21 -20 -20 -20 -20 -4 4 5 6 5 7 5 7 7 8 9 9 9 8 8 8 8 8 7 7 7 7 7 8 8
-28 -26 -24 -22 -21 -20 -20 -19 -14 2 5 5 5 6 5 5 5 5 7 8 9 8 9 8 8 8 8 7 7 6 7 7 7
-34 -34 -30 -25 -22 -20 -19 -19 -17 -6 2 5 5 5 6 5 5 5 5 5 7 7 8 8 8 8 8 8 7 7 5 4 6
-32 -33 -35 -36 -33 -26 -20 -19 -18 -16 -8 2 3 5 6 6 6 6 6 6 6 6 6 6 6 7 7 8 7 6 6 5 5
Wind_Speed
6 5 4 6 6 2 2 2 2 2 3 4 6 8 10 11 10 7 5 3 6 9 10 10 11 10 12 10 12 12 12 13 14
7 6 7 6 8 6 3 2 2 1 1 3 5 7 9 11 10 8 6 8 8 10 12 9 11 12 11 12 12 12 12 14 13
7 10 10 9 8 9 7 6 4 3 3 3 5 6 8 10 10 7 6 8 9 10 9 10 11 11 9 11 12 12 13 13 13
5 10 12 13 12 10 9 7 7 6 5 5 5 5 6 8 9 7 8 8 8 9 8 10 10 7 12 9 10 11 10 12 11
5 7 11 13 15 13 12 12 9 7 7 6 7 6 6 6 7 5 6 7 4 9 7 6 6 9 11 8 9 9 11 9 10
5 6 9 10 13 15 15 14 11 9 8 8 7 8 6 5 5 3 4 5 3 7 6 2 7 8 9 8 8 9 8 9 9
5 5 5 5 7 14 16 17 15 14 12 10 10 9 8 5 4 3 1 8 5 5 5 7 5 6 6 7 7 7 7 8 8
8 3 4 4 6 7 12 17 20 19 16 12 12 11 10 8 6 3 1 4 4 6 6 5 6 6 6 6 6 6 6 7 7
14 9 3 3 4 7 10 8 21 22 21 17 15 12 12 10 8 6 3 3 6 5 5 6 7 6 5 4 5 5 5 5 6
15 15 9 4 4 5 10 11 9 21 25 22 18 16 13 12 10 9 6 5 4 5 6 6 6 5 6 3 3 4 4 4 4
15 15 14 7 3 4 8 13 12 12 18 23 23 21 17 14 12 10 9 7 6 5 8 7 7 6 5 4 4 4 4 3 3
14 14 14 13 6 6 6 8 10 11 15 18 24 21 20 17 15 12 11 9 9 7 7 8 6 7 7 5 5 4 4 3 3
14 13 12 13 12 8 8 10 10 10 16 10 17 25 23 21 17 14 13 11 10 9 9 8 8 8 6 6 7 6 5 4 4
14 14 14 14 13 11 11 8 12 12 10 16 4 16 22 21 19 17 14 13 11 10 10 9 9 10 9 8 9 8 8 6 6
13 14 15 14 13 12 11 11 8 11 12 12 16 8 15 20 18 17 16 15 14 12 11 11 12 12 12 10 10 11 11 10 8
11 12 12 13 14 15 15 13 10 6 8 5 7 14 1 11 18 14 18 16 16 15 13 14 13 14 15 15 12 12 13 14 11
10 11 11 11 12 14 15 15 12 9 9 3 9 4 16 13 7 16 12 16 19 18 16 16 16 16 17 21 17 15 13 14 14
12 12 11 11 11 12 14 14 13 4 7 11 6 4 7 10 13 20 10 16 16 20 19 21 19 18 19 21 24 18 19 17 15
13 13 13 12 12 11 11 12 11 6 4 1 5 4 2 3 3 12 15 14 10 10 20 22 22 22 22 23 23 25 21 19 20
13 14 14 13 13 13 11 10 10 9 5 8 6 3 5 4 3 7 14 13 12 15 11 10 14 23 28 27 25 23 24 21 21
Wind_Direction
220 205 171 153 149 149 124 55 64 92 53 26 15 19 15 12 20 29 30 60 93 92 91 88 82 85 90 79 85 81 83 87 85
203 225 215 202 176 182 243 263 287 307 350 349 358 359 4 11 14 35 62 93 98 98 96 94 103 88 95 92 90 87 85 86 83
218 212 224 224 211 202 202 241 265 277 303 320 339 343 356 3 12 31 65 97 102 104 104 111 92 99 101 100 98 93 94 89 83
241 226 223 228 231 223 219 219 242 272 290 316 324 331 342 357 11 22 89 92 94 100 83 98 113 117 98 103 98 98 96 93 92
256 241 233 230 231 232 228 222 230 247 275 292 317 317 328 345 2 40 75 106 132 122 119 117 117 109 115 111 106 103 97 93 86
272 259 239 240 236 237 231 229 223 243 257 278 291 310 310 320 349 14 103 140 141 129 134 137 121 126 117 115 108 103 101 94 89
359 290 262 278 282 240 239 228 223 230 240 266 282 292 299 296 309 331 341 161 188 137 157 149 141 130 128 128 121 116 105 96 88
22 348 291 271 281 304 237 233 226 232 234 243 269 284 283 285 279 293 302 161 217 181 182 150 156 140 147 147 132 111 100 96 88
24 23 357 289 339 299 316 239 229 227 238 225 244 264 272 272 271 266 253 223 210 212 184 179 167 186 165 159 133 118 115 105 95
25 28 16 343 287 326 342 349 292 225 232 231 227 245 257 258 261 264 255 257 260 225 212 201 197 198 198 178 153 138 136 123 110
21 24 26 3 311 293 312 347 343 298 238 231 229 230 242 246 248 254 260 255 268 236 233 207 221 207 228 209 193 179 167 156 144
19 17 17 24 6 277 272 292 355 348 291 246 235 239 231 235 235 244 253 260 264 266 254 233 224 232 226 236 237 217 207 189 185
7 13 17 15 11 4 276 275 287 351 7 285 254 234 232 228 226 233 245 253 268 270 274 265 239 250 249 253 265 260 244 225 218
355 359 8 9 8 358 0 297 282 297 333 14 314 249 227 220 223 226 235 248 259 271 281 280 255 259 253 253 265 269 270 254 245
350 352 356 356 358 2 0 358 325 296 299 317 349 345 243 228 227 222 229 241 255 263 275 284 277 264 261 256 264 275 276 274 257
357 357 357 354 353 3 7 9 12 342 313 340 8 29 345 252 232 241 236 240 249 257 267 281 286 287 273 259 248 259 277 285 278
10 6 4 3 360 358 3 14 32 32 5 67 72 86 58 59 275 247 282 244 252 257 264 269 279 289 291 292 269 249 247 268 282
24 19 16 10 5 2 6 12 23 51 44 49 67 46 51 18 40 28 311 274 258 254 263 270 272 277 288 292 291 276 252 250 252
26 24 23 19 15 12 11 11 17 27 290 15 47 99 25 329 323 338 334 0 357 332 261 259 271 277 280 286 290 295 294 271 254
21 22 23 22 20 15 12 9 8 14 2 283 305 129 153 185 305 297 276 280 304 338 341 350 311 286 279 279 287 291 292 288 285
Height
1579 1579 1580 1580 1580 1581 1581 1582 1582 1582 1582 1582 1581 1580 1579 1577 1576 1574 1573 1573 1572 1572 1573 1573 1573 1573 1573 1573 1573 1572 1572 1571 1571
1577 1578 1578 1580 1580 1580 1582 1582 1582 1583 1582 1582 1582 1581 1580 1579 1577 1575 1574 1575 1574 1573 1574 1574 1575 1575 1575 1575 1574 1574 1574 1573 1573
1575 1576 1577 1578 1579 1579 1580 1580 1582 1582 1582 1582 1582 1581 1581 1580 1579 1577 1576 1576 1576 1575 1575 1575 1576 1577 1576 1576 1576 1576 1576 1576 1575
1573 1574 1575 1576 1577 1578 1579 1579 1581 1582 1582 1582 1582 1581 1581 1581 1580 1579 1578 1578 1579 1578 1578 1577 1578 1577 1578 1578 1578 1578 1577 1577 1576
1573 1573 1573 1574 1576 1577 1577 1577 1579 1580 1581 1581 1582 1582 1581 1581 1580 1580 1579 1581 1580 1580 1580 1580 1578 1578 1579 1579 1579 1578 1578 1578 1577
1572 1572 1572 1572 1573 1574 1575 1576 1577 1579 1580 1581 1581 1581 1581 1581 1581 1580 1580 1582 1582 1580 1580 1580 1580 1579 1579 1579 1580 1579 1579 1579 1578
1572 1571 1571 1571 1571 1572 1573 1574 1575 1576 1578 1580 1581 1581 1582 1581 1581 1581 1580 1582 1581 1581 1581 1580 1580 1580 1579 1580 1580 1580 1580 1580 1580
1571 1571 1570 1570 1570 1569 1570 1571 1573 1574 1575 1578 1579 1581 1581 1582 1581 1581 1581 1581 1581 1581 1580 1580 1580 1580 1580 1580 1580 1580 1581 1581 1581
1571 1569 1569 1570 1570 1569 1568 1568 1569 1570 1572 1573 1577 1578 1580 1581 1582 1582 1582 1582 1581 1581 1580 1580 1580 1580 1580 1580 1580 1581 1581 1581 1581
1571 1569 1568 1569 1569 1569 1569 1567 1566 1566 1568 1571 1573 1575 1578 1579 1581 1582 1582 1583 1582 1581 1581 1580 1580 1581 1580 1580 1581 1581 1582 1582 1582
1571 1570 1570 1569 1568 1569 1568 1567 1566 1564 1565 1567 1569 1572 1575 1577 1579 1580 1581 1582 1583 1582 1581 1581 1580 1581 1581 1581 1581 1582 1581 1582 1582
1572 1571 1571 1569 1568 1568 1567 1567 1566 1566 1563 1562 1566 1568 1571 1574 1577 1578 1580 1581 1582 1583 1582 1581 1582 1581 1582 1581 1582 1582 1582 1582 1582
1571 1571 1571 1569 1567 1567 1565 1565 1565 1564 1564 1561 1562 1565 1567 1570 1573 1576 1578 1580 1582 1583 1583 1583 1582 1582 1582 1583 1582 1582 1582 1582 1582
1570 1571 1568 1568 1568 1566 1563 1563 1562 1562 1562 1562 1559 1562 1562 1565 1569 1573 1576 1578 1580 1581 1583 1584 1584 1584 1583 1583 1583 1583 1583 1583 1582
1570 1569 1567 1568 1567 1565 1564 1562 1560 1559 1559 1561 1562 1559 1559 1564 1566 1569 1573 1576 1579 1580 1581 1583 1583 1584 1584 1584 1585 1584 1583 1583 1583
1570 1569 1569 1569 1567 1565 1563 1562 1561 1558 1558 1560 1560 1559 1558 1560 1563 1568 1571 1573 1578 1579 1579 1580 1582 1583 1582 1583 1584 1585 1585 1584 1582
1571 1570 1569 1568 1566 1564 1561 1560 1559 1560 1559 1558 1558 1561 1562 1556 1563 1567 1567 1571 1575 1577 1577 1578 1580 1581 1581 1580 1581 1582 1582 1583 1583
1571 1570 1569 1567 1566 1564 1562 1560 1560 1560 1561 1561 1560 1560 1559 1561 1563 1567 1567 1568 1569 1572 1573 1576 1577 1578 1579 1579 1578 1578 1579 1580 1581
1571 1570 1569 1568 1566 1564 1562 1562 1561 1561 1561 1562 1562 1562 1563 1561 1563 1561 1569 1568 1568 1566 1568 1572 1574 1575 1575 1576 1576 1575 1576 1576 1577
1571 1570 1570 1567 1565 1563 1563 1562 1562 1561 1561 1561 1562 1562 1561 1560 1562 1561 1562 1564 1565 1567 1568 1569 1571 1571 1571 1571 1571 1572 1572 1573 1573